Location: Newark
(33.6333°S, 78.8500°W)
Time: 12:01:38
(UTC+00:00)

Courier 1B - Pass Details

Date: 01 October 2019
Orbit: 962 x 1209 km, 28.3° (Epoch: 18 October)

Event Time Altitude Azimuth Distance (km) Brightness Sun altitude
Rises 01:46:23 0° 279° (W) 4,033 11.4 -30.5°
Reaches altitude 10° 01:51:44 10° 309° (NW) 3,005 10.3 -31.5°
Maximum altitude 01:53:56 11° 327° (NNW) 2,865 10.0 -31.9°
Enters shadow 01:55:03 11° 336° (NNW) 2,878 9.9 -32.1°
Drops below altitude 10° 01:56:07 10° 345° (NNW) 2,943 - -32.3°
Sets 02:01:12 0° 16° (NNE) 3,823 - -33.2°
